Location: Unspecified
(0.0000°N, 0.0000°E)
Time: 10:48:31
(UTC+00:00)

Explorer 11/Cluster Stage 4 - Pass Details

Date: 04 October 2020
Orbit: 467 x 1258 km, 28.8° (Epoch: 28 October)

Event Time Altitude Azimuth Distance (km) Brightness Sun altitude
Rises 07:12:55 0° 287° (WNW) 4,063 9.6 21.0°
Reaches altitude 10° 07:15:50 10° 281° (W) 3,162 9.2 21.7°
Maximum altitude 07:23:32 46° 210° (SSW) 1,623 8.3 23.6°
Drops below altitude 10° 07:31:15 10° 139° (SE) 3,159 10.5 25.6°
Sets 07:34:11 0° 133° (SE) 4,060 11.0 26.3°
